Sauk Centre, MN

12:42 AM CDT on October 18, 2017 (GMT -0500)
Sauk Centre

Weather History for KD39 - July, 2013

Change the Weather History Date:

Thursday, July 11, 2013

  Actual Average (KGHW) Record (KGHW)
Temperature  
Mean Temperature 68 °F -  
Max Temperature 83 °F 84 °F 98 °F (1976)
Min Temperature 52 °F 59 °F 48 °F (1988)
Cooling Degree Days 2    
Growing Degree Days 18 (Base 50)    
Moisture  
Dew Point 57 °F    
Average Humidity 69    
Maximum Humidity 100    
Minimum Humidity 43    
Precipitation  
Precipitation 0.00 in - - ()
Sea Level Pressure  
Sea Level Pressure 30.04 in    
Wind  
Wind Speed 5 mph (SSE)    
Max Wind Speed 18 mph    
Max Gust Speed 24 mph    
Visibility 8 miles    
Events Fog    
Averages and records for this station are not official NWS values.
T = Trace of Precipitation, MM = Missing Value Source: NWS Daily Summary

Daily Weather History Graph

Daily Weather History Graph

Search for Another Location

Airport or City:

Trip Planner

Search our weather history database for the weather conditions in past years. The results will help you decide how hot, cold, wet, or windy it might be!

Date:

Astronomy

Jul. 11, 2013 Rise Set
Actual Time 5:41 AM CDT 9:08 PM CDT
Civil Twilight 5:04 AM CDT 9:45 PM CDT
Nautical Twilight 4:15 AM CDT 10:34 PM CDT
Astronomical Twilight 3:12 AM CDT 11:36 PM CDT
Moon 9:13 AM CDT (7/11) 10:35 PM CDT (7/11)
Length of Visible Light 16h 41m
Length of Day
15h 27m
Waxing Crescent, 11% of the Moon is Illuminated
Jul 11
Waxing Crescent
Jul 15
First Quarter
Jul 22
Full
Jul 29
Last Quarter
Aug 6
New

Hourly Weather History & Observations

Time (CDT) Temp. Heat Index Dew Point Humidity Pressure Visibility Wind Dir Wind Speed Gust Speed Precip Events Conditions
12:10 AM 59.9 °F - 58.1 °F 94% 30.08 in 7.0 mi Calm Calm - N/A   Clear
12:30 AM 59.9 °F - 58.1 °F 94% 30.08 in 7.0 mi Calm Calm - N/A   Clear
12:50 AM 60.1 °F - 59.2 °F 97% 30.08 in 5.0 mi Calm Calm - N/A   Clear
1:10 AM 59.0 °F - 58.5 °F 98% 30.09 in 0.2 mi Calm Calm - N/A Fog Fog
1:30 AM 57.7 °F - 57.4 °F 99% 30.09 in 0.8 mi Calm Calm - N/A   Overcast
1:50 AM 57.7 °F - 57.0 °F 97% 30.08 in 3.0 mi Calm Calm - N/A   Clear
2:10 AM 58.1 °F - 57.6 °F 98% 30.08 in 0.2 mi Calm Calm - N/A Fog Fog
2:30 AM 57.2 °F - 57.0 °F 99% 30.08 in 0.2 mi Calm Calm - N/A Fog Fog
2:50 AM 56.1 °F - 55.9 °F 99% 30.08 in 0.2 mi Calm Calm - N/A Fog Fog
3:10 AM 57.4 °F - 57.2 °F 99% 30.09 in 0.2 mi Calm Calm - N/A Fog Fog
3:30 AM 55.2 °F - 55.2 °F 100% 30.09 in 0.2 mi Calm Calm - N/A Fog Fog
3:50 AM 55.4 °F - 55.4 °F 100% 30.09 in 3.0 mi Calm Calm - N/A   Scattered Clouds
4:09 AM 55.0 °F - 54.3 °F 97% 30.09 in 5.0 mi Calm Calm - N/A   Clear
4:30 AM 54.7 °F - 54.5 °F 99% 30.09 in 2.5 mi Calm Calm - N/A   Clear
4:50 AM 55.0 °F - 54.9 °F 99% 30.10 in 3.0 mi Calm Calm - N/A   Clear
5:10 AM 54.5 °F - 54.3 °F 99% 30.10 in 3.0 mi Calm Calm - N/A   Clear
5:30 AM 52.9 °F - 52.3 °F 98% 30.10 in 0.8 mi Calm Calm - N/A   Mist
5:50 AM 53.1 °F - 52.7 °F 99% 30.10 in 1.0 mi Calm Calm - N/A   Mist
6:10 AM 54.1 °F - 53.8 °F 99% 30.11 in 2.5 mi Calm Calm - N/A   Clear
6:30 AM 55.4 °F - 55.0 °F 99% 30.11 in 2.0 mi Calm Calm - N/A   Clear
6:50 AM 55.4 °F - 54.9 °F 98% 30.11 in 4.0 mi Calm Calm - N/A   Clear
7:10 AM 57.7 °F - 56.8 °F 97% 30.11 in 4.0 mi Calm Calm - N/A   Clear
7:30 AM 60.6 °F - 57.7 °F 90% 30.11 in 7.0 mi Calm Calm - N/A   Clear
7:50 AM 62.1 °F - 58.1 °F 87% 30.11 in 7.0 mi ESE 4.6 mph - N/A   Clear
8:10 AM 64.9 °F - 59.0 °F 81% 30.11 in 7.0 mi SE 3.5 mph - N/A   Clear
8:30 AM 66.7 °F - 58.5 °F 75% 30.11 in 10.0 mi SE 8.1 mph - N/A   Clear
8:50 AM 69.1 °F - 57.6 °F 67% 30.11 in 10.0 mi SE 9.2 mph - N/A   Clear
9:10 AM 70.7 °F - 57.4 °F 63% 30.10 in 10.0 mi SE 9.2 mph - N/A   Clear
9:30 AM 72.7 °F - 57.4 °F 59% 30.10 in 10.0 mi SSE 11.5 mph - N/A   Clear
9:50 AM 74.1 °F - 57.2 °F 55% 30.10 in 10.0 mi South 12.7 mph - N/A   Clear
10:09 AM 75.2 °F - 57.2 °F 53% 30.09 in 10.0 mi South 11.5 mph - N/A   Clear
10:30 AM 75.6 °F - 56.8 °F 52% 30.08 in 10.0 mi South 13.8 mph - N/A   Clear
10:50 AM 76.1 °F - 56.7 °F 51% 30.08 in 10.0 mi South 12.7 mph - N/A   Clear
11:10 AM 76.5 °F - 56.3 °F 50% 30.08 in 10.0 mi South 13.8 mph - N/A   Clear
11:30 AM 77.9 °F - 57.0 °F 48% 30.07 in 10.0 mi SSE 11.5 mph 18.4 mph N/A   Clear
11:50 AM 78.4 °F - 56.5 °F 47% 30.07 in 10.0 mi South 15.0 mph 19.6 mph N/A   Clear
12:10 PM 78.4 °F - 56.8 °F 47% 30.07 in 10.0 mi SSE 15.0 mph 20.7 mph N/A   Clear
12:30 PM 79.0 °F - 56.7 °F 46% 30.06 in 10.0 mi SSE 16.1 mph 19.6 mph N/A   Clear
12:50 PM 79.5 °F - 57.0 °F 46% 30.06 in 10.0 mi SSE 15.0 mph - N/A   Clear
1:10 PM 80.1 °F 80.4 °F 56.8 °F 45% 30.05 in 10.0 mi SSE 13.8 mph 20.7 mph N/A   Clear
1:30 PM 80.6 °F 80.7 °F 56.8 °F 44% 30.04 in 10.0 mi South 13.8 mph 20.7 mph N/A   Clear
1:50 PM 80.8 °F 80.8 °F 56.1 °F 43% 30.04 in 10.0 mi SSE 11.5 mph - N/A   Clear
2:10 PM 81.9 °F 81.8 °F 57.7 °F 44% 30.03 in 10.0 mi SE 17.3 mph 20.7 mph N/A   Clear
2:30 PM 82.2 °F 82.0 °F 57.6 °F 43% 30.03 in 10.0 mi SSE 18.4 mph 23.0 mph N/A   Scattered Clouds
2:50 PM 81.9 °F 81.7 °F 57.6 °F 43% 30.02 in 10.0 mi South 16.1 mph - N/A   Scattered Clouds
3:10 PM 81.9 °F 81.8 °F 57.9 °F 44% 30.02 in 10.0 mi SSE 16.1 mph 24.2 mph N/A   Clear
3:30 PM 83.1 °F 82.9 °F 58.3 °F 43% 30.00 in 10.0 mi SSE 17.3 mph 21.9 mph N/A   Clear
3:50 PM 82.8 °F 82.7 °F 58.6 °F 44% 30.00 in 10.0 mi SSE 15.0 mph - N/A   Clear
4:10 PM 83.3 °F 83.2 °F 59.0 °F 44% 30.00 in 10.0 mi South 15.0 mph - N/A   Clear
4:30 PM 83.3 °F 83.1 °F 58.6 °F 43% 30.00 in 10.0 mi SSE 17.3 mph 21.9 mph N/A   Clear
4:50 PM 83.3 °F 83.2 °F 59.5 °F 44% 29.99 in 10.0 mi SSE 16.1 mph 20.7 mph N/A   Clear
5:10 PM 81.3 °F 81.7 °F 59.5 °F 47% 29.99 in 10.0 mi South 16.1 mph 20.7 mph N/A   Clear
5:30 PM 83.1 °F 83.3 °F 60.3 °F 46% 29.98 in 10.0 mi South 16.1 mph - N/A   Clear
5:50 PM 81.3 °F 81.7 °F 59.2 °F 47% 29.98 in 10.0 mi SSE 17.3 mph 24.2 mph N/A   Scattered Clouds
6:10 PM 80.6 °F 81.0 °F 58.6 °F 47% 29.98 in 10.0 mi SSE 15.0 mph 19.6 mph N/A   Mostly Cloudy
6:30 PM 81.5 °F 82.0 °F 59.9 °F 48% 29.97 in 10.0 mi SSE 11.5 mph 16.1 mph N/A   Mostly Cloudy
6:50 PM 80.4 °F 81.1 °F 59.9 °F 49% 29.97 in 10.0 mi SSE 9.2 mph 12.7 mph N/A   Scattered Clouds
7:10 PM 78.8 °F - 59.9 °F 52% 29.97 in 10.0 mi SSE 9.2 mph 16.1 mph N/A   Mostly Cloudy
7:30 PM - - - N/A% 29.97 in 10.0 mi SSE 9.2 mph - N/A   Mostly Cloudy
7:50 PM - - - N/A% 29.95 in 10.0 mi SE 9.2 mph - N/A   Mostly Cloudy
8:10 PM - - - N/A% 29.95 in 10.0 mi SE 9.2 mph - N/A   Mostly Cloudy
8:30 PM - - - N/A% 29.95 in 10.0 mi SE 9.2 mph - N/A   Mostly Cloudy
8:50 PM 75.9 °F - 59.5 °F 57% 29.95 in 10.0 mi SE 8.1 mph - N/A   Mostly Cloudy
9:10 PM 75.0 °F - 59.9 °F 59% 29.95 in 10.0 mi SE 9.2 mph - N/A   Overcast
9:30 PM 74.3 °F - 59.9 °F 61% 29.95 in 10.0 mi SE 9.2 mph - N/A   Overcast
9:50 PM 73.4 °F - 59.7 °F 62% 29.95 in 10.0 mi SE 9.2 mph - N/A   Overcast
10:10 PM 72.5 °F - 59.9 °F 64% 29.95 in 10.0 mi SSE 8.1 mph - N/A   Scattered Clouds
10:30 PM 71.6 °F - 59.5 °F 66% 29.95 in 10.0 mi SE 9.2 mph - N/A   Clear
10:50 PM 71.6 °F - 59.2 °F 65% 29.95 in 10.0 mi SE 10.4 mph - N/A   Clear
11:10 PM 70.7 °F - 59.0 °F 66% 29.94 in 10.0 mi SSE 9.2 mph - N/A   Clear
11:30 PM 70.3 °F - 58.6 °F 66% 29.95 in 10.0 mi SSE 9.2 mph - N/A   Clear
11:50 PM 70.7 °F - 58.3 °F 65% 29.94 in 10.0 mi SSE 11.5 mph - N/A   Clear